Weather History for Defiance, OH

Change the Weather History Date:

Friday, January 18, 2013

  Actual Average Record
Temperature  
Mean Temperature 29 °F -  
Max Temperature 37 °F 30 °F 63 °F (1952)
Min Temperature 21 °F 14 °F -22 °F (1982)
Degree Days  
Heating Degree Days 36    
Moisture  
Dew Point 18 °F    
Average Humidity 63    
Maximum Humidity 72    
Minimum Humidity 52    
Precipitation  
Precipitation 0.00 in - - ()
Sea Level Pressure  
Sea Level Pressure 30.32 in    
Wind  
Wind Speed 9 mph (SW)    
Max Wind Speed 18 mph    
Max Gust Speed 28 mph    
Visibility 10 miles    
Events      
Averages and records for this station are not official NWS values.
T = Trace of Precipitation, MM = Missing Value Source: NWS Daily Summary

Daily Weather History Graph

Daily Weather History Graph

Search for Another Location

Airport:

Trip Planner

Search our weather history database for the weather conditions in past years. The results will help you decide how hot, cold, wet, or windy it might be!

Date:

Astronomy

Jan. 18, 2013 Rise Set
Actual Time 7:59 AM EST 5:37 PM EST
Civil Twilight 7:29 AM EST 6:07 PM EST
Nautical Twilight 6:55 AM EST 6:41 PM EST
Astronomical Twilight 6:22 AM EST 7:14 PM EST
Moon 11:32 AM EST (1/18) 12:31 AM EST (1/18)
Length of Visible Light 10h 37m
Length of Day
9h 37m
Waxing Crescent, 47% of the Moon is Illuminated
Jan 18
Waxing Crescent
Jan 18
First Quarter
Jan 26
Full
Feb 3
Last Quarter
Feb 10
New

Hourly Weather History & Observations

Time (EST) Temp. Windchill Dew Point Humidity Pressure Visibility Wind Dir Wind Speed Gust Speed Precip Events Conditions
12:53 AM 23.0 °F 17.0 °F 15.1 °F 72% 30.39 in 10.0 mi SW 4.6 mph - N/A   Overcast
1:53 AM 24.1 °F 18.2 °F 15.1 °F 69% 30.41 in 10.0 mi WSW 4.6 mph - N/A   Overcast
2:53 AM 24.1 °F 16.0 °F 15.1 °F 69% 30.44 in 10.0 mi WSW 6.9 mph - N/A   Overcast
3:53 AM 21.9 °F 15.7 °F 14.0 °F 72% 30.44 in 10.0 mi WSW 4.6 mph - N/A   Clear
4:53 AM 23.0 °F 13.9 °F 14.0 °F 68% 30.43 in 10.0 mi WSW 8.1 mph - N/A   Clear
5:53 AM 21.0 °F 14.6 °F 12.9 °F 71% 30.45 in 10.0 mi SW 4.6 mph - N/A   Clear
6:53 AM 21.9 °F 17.2 °F 14.0 °F 72% 30.45 in 10.0 mi SW 3.5 mph - N/A   Clear
7:53 AM 21.9 °F 17.2 °F 14.0 °F 72% 30.48 in 10.0 mi WSW 3.5 mph - N/A   Clear
8:53 AM 23.0 °F 15.8 °F 15.1 °F 72% 30.48 in 10.0 mi SSW 5.8 mph - N/A   Clear
9:53 AM 26.1 °F 16.8 °F 16.0 °F 66% 30.48 in 10.0 mi SW 9.2 mph - N/A   Overcast
10:53 AM 28.0 °F 18.1 °F 16.0 °F 61% 30.47 in 10.0 mi SW 11.5 mph - N/A   Overcast
11:53 AM 30.0 °F 19.5 °F 17.1 °F 59% 30.43 in 10.0 mi SSW 13.8 mph - N/A   Overcast
12:53 PM 30.9 °F 19.8 °F 19.0 °F 61% 30.38 in 10.0 mi SW 16.1 mph 21.9 mph N/A   Partly Cloudy
1:53 PM 33.1 °F 22.2 °F 19.0 °F 56% 30.33 in 10.0 mi SSW 17.3 mph 23.0 mph N/A   Clear
2:53 PM 35.1 °F 25.2 °F 19.9 °F 54% 30.30 in 10.0 mi SSW 16.1 mph 26.5 mph N/A   Clear
3:53 PM 37.0 °F 27.0 °F 21.0 °F 52% 30.25 in 10.0 mi SSW 18.4 mph 27.6 mph N/A   Clear
4:53 PM 36.0 °F 26.3 °F 21.0 °F 55% 30.23 in 10.0 mi SSW 16.1 mph 21.9 mph N/A   Clear
5:53 PM 35.1 °F 25.9 °F 19.9 °F 54% 30.20 in 10.0 mi SSW 13.8 mph 19.6 mph N/A   Clear
6:53 PM 34.0 °F 25.0 °F 19.9 °F 56% 30.17 in 10.0 mi South 12.7 mph 23.0 mph N/A   Clear
7:53 PM 34.0 °F 24.2 °F 21.0 °F 59% 30.14 in 10.0 mi South 15.0 mph 26.5 mph N/A   Clear
8:53 PM 35.1 °F 24.5 °F 21.9 °F 59% 30.11 in 10.0 mi SSW 18.4 mph 25.3 mph N/A   Clear
9:53 PM 36.0 °F 25.6 °F 21.9 °F 57% 30.09 in 10.0 mi SSW 18.4 mph 24.2 mph N/A   Clear
10:53 PM 36.0 °F 26.7 °F 23.0 °F 59% 30.09 in 10.0 mi SSW 15.0 mph 24.2 mph N/A   Clear
11:53 PM 37.0 °F 28.1 °F 23.0 °F 57% 30.06 in 10.0 mi SSW 15.0 mph - N/A   Clear